Location: Marne
(34.0056°N, 117.9064°W)
Time: 04:40:47
(UTC+00:00)

Cosmos 2297 Rocket - Pass Details

Date: 18 January 2020
Orbit: 838 x 845 km, 71.0° (Epoch: 19 February)

Event Time Altitude Azimuth Distance (km) Brightness Sun altitude
Rises 02:05:47 0° 179° (S) 3,373 5.6 -12.2°
Reaches altitude 10° 02:08:21 10° 172° (S) 2,444 4.7 -12.7°
Maximum altitude 02:13:32 40° 105° (ESE) 1,223 2.6 -13.7°
Enters shadow 02:17:38 16° 42° (NE) 2,078 3.7 -14.5°
